Home > Weather > Fairbanks > Past weeks

Flag for USA Weather for the Past 2 Weeks in Fairbanks, Alaska, USA

Now
43 °F

Overcast.


Feels Like: 40 °F
Forecast: 44 / 60 °F
Wind: 6 mph from East

Location: Wainwright U. S. Army Airfield

Current Time: May 6, 2016 at 6:04:04 AM

Latest Report: May 6, 2016 at 4:58 AM


Visibility: 9 mi

Pressure: 29.50 "Hg

Humidity: 51%

Dew Point: 26 °F

Location of FairbanksLocation

Historic Weather in Fairbanks — Graph

°F

Fairbanks Temperature Yesterday

Maximum temperature yesterday: 59 °F (at 7:58 PM)
Minimum temperature yesterday: 32 °F (at 5:58 AM)
Average temperature yesterday: 48 °F

High & Low Weather Summary for the Past Weeks

 TemperatureHumidityPressure
High64 °F (Apr 23, 5:58 PM)100% (Apr 28, 4:03 AM)29.96 "Hg (Apr 28, 4:03 AM)
Low30 °F (Apr 30, 5:58 AM)16% (Apr 30, 4:58 PM)29.49 "Hg (Apr 30, 5:58 PM)
Average48 °F57%29.70 "Hg
* Reported Apr 21 4:58 AM — May 6 4:58 AM, Fairbanks, Weather by CustomWeather, © 2016

Note: Actual official high and low records may vary slightly from our data, if they occured in-between our weather recording intervals... More about our weather records

Advertising

Fairbanks Weather History for the Previous 24 Hours

Scroll right to see more
 ConditionsComfort  
Time TempWeatherWind HumidityBarometerVisibility
4:58 AM
Fri, May 6
43 °FOvercast.6 mph51%29.50 "Hg9 mi
3:58 AM44 °FOvercast.7 mph49%29.52 "Hg10 mi
2:58 AM45 °FPassing clouds.3 mph46%29.54 "Hg10 mi
1:58 AM46 °FLight rain. Overcast.7 mph43%29.55 "Hg9 mi
12:58 AM46 °FLight rain. Overcast.8 mph42%29.57 "Hg9 mi
11:58 PM
Thu, May 5
47 °FLight rain. Overcast.9 mph38%29.59 "Hg9 mi
10:59 PM48 °FLight rain. Passing clouds.8 mph37%29.59 "Hg7 mi
10:58 PM49 °FPassing clouds.7 mph36%29.60 "Hg7 mi
9:58 PM54 °FPartly sunny.7 mph28%29.61 "Hg7 mi
8:58 PM56 °FPartly sunny.8 mph27%29.62 "Hg25 mi
7:58 PM59 °FPartly sunny.7 mph21%29.64 "Hg7 mi
6:58 PM58 °FPartly sunny.5 mph21%29.65 "Hg10 mi
5:58 PM58 °FPartly sunny.8 mph23%29.67 "Hg10 mi
4:58 PM58 °FPassing clouds.No wind22%29.70 "Hg10 mi
3:58 PM58 °FSunny.8 mph22%29.72 "Hg10 mi
3:55 PM58 °FBroken clouds.5 mph22%29.72 "Hg25 mi
2:58 PM56 °FPassing clouds.3 mph24%29.75 "Hg10 mi
1:59 PM57 °FScattered clouds.7 mph28%29.78 "Hg25 mi
12:58 PM54 °FPassing clouds.1 mph30%29.80 "Hg25 mi
11:58 AM52 °FPassing clouds.3 mph34%29.83 "Hg25 mi
10:58 AM50 °FPassing clouds.3 mph42%29.84 "Hg25 mi
9:58 AM47 °FPassing clouds.5 mph52%29.85 "Hg25 mi
8:58 AM43 °FPassing clouds.2 mph68%29.86 "Hg25 mi
7:58 AM38 °FSunny.2 mph77%29.87 "Hg10 mi
6:58 AM35 °FSunny.3 mph87%29.87 "Hg9 mi
Weather by CustomWeather, © 2016

See weather overviewHow to use our weather pages